Weather History for KWVI - December, 2014

Change the Weather History Date:

Tuesday, December 30, 2014

  Actual Average Record
Temperature  
Mean Temperature 47 °F 50 °F  
Max Temperature 57 °F 60 °F 67 °F (2013)
Min Temperature 36 °F 39 °F 32 °F (2006)
Degree Days  
Heating Degree Days 18    
Month to date heating degree days 264  
Since 1 July heating degree days 487  
Cooling Degree Days 0    
Month to date cooling degree days 0  
Year to date cooling degree days 351  
Moisture  
Dew Point 24 °F    
Average Humidity 57    
Maximum Humidity 92    
Minimum Humidity 21    
Precipitation  
Precipitation 0.00 in - 2.05 in (1981)
Month to date precipitation 9.43  
Year to date precipitation 21.61  
Since 1 July precipitation 13.43  
Sea Level Pressure  
Sea Level Pressure 30.10 in    
Wind  
Wind Speed 9 mph (NNW)    
Max Wind Speed 21 mph    
Max Gust Speed 36 mph    
Visibility 10 miles    
Events      
T = Trace of Precipitation, MM = Missing Value Source: NWS Daily Summary

Daily Weather History Graph

Daily Weather History Graph

Search for Another Location

Airport or City:

Trip Planner

Search our weather history database for the weather conditions in past years. The results will help you decide how hot, cold, wet, or windy it might be!

Date:

Astronomy

Dec. 30, 2014 Rise Set
Actual Time 7:19 AM PST 4:59 PM PST
Civil Twilight 6:50 AM PST 5:28 PM PST
Nautical Twilight 6:18 AM PST 6:01 PM PST
Astronomical Twilight 5:46 AM PST 6:32 PM PST
Moon 1:11 PM PST (12/30) 1:53 AM PST (12/30)
Length of Visible Light 10h 37m
Length of Day
9h 39m
Waxing Gibbous, 72% of the Moon is Illuminated
Dec 30
Waxing Gibbous
Jan 4
Full
Jan 13
Last Quarter
Jan 20
New
Jan 26
First Quarter

Hourly Weather History & Observations

Time (PST) Temp. Windchill Dew Point Humidity Pressure Visibility Wind Dir Wind Speed Gust Speed Precip Events Conditions
12:53 AM 39.9 °F 35.8 °F 37.0 °F 89% 30.12 in 10.0 mi NW 5.8 mph - N/A   Clear
1:53 AM 41.0 °F 38.0 °F 37.0 °F 86% 30.11 in 10.0 mi NW 4.6 mph - N/A   Clear
2:53 AM 41.0 °F 38.0 °F 36.0 °F 82% 30.11 in 10.0 mi WNW 4.6 mph - N/A   Clear
3:53 AM 39.0 °F 35.7 °F 36.0 °F 89% 30.10 in 10.0 mi NW 4.6 mph - N/A   Clear
4:53 AM 37.9 °F 34.4 °F 35.1 °F 89% 30.09 in 10.0 mi WSW 4.6 mph - N/A   Clear
5:53 AM 44.1 °F 40.8 °F 35.1 °F 71% 30.09 in 10.0 mi NNW 5.8 mph - N/A   Clear
6:53 AM 45.0 °F - 30.0 °F 56% 30.09 in 10.0 mi North - - N/A   Clear
7:53 AM 46.0 °F 42.5 °F 28.0 °F 50% 30.10 in 10.0 mi Variable 6.9 mph - N/A   Clear
8:53 AM 48.0 °F - 32.0 °F 54% 30.11 in 10.0 mi South 5.8 mph - N/A   Clear
9:53 AM 51.1 °F - 25.0 °F 36% 30.12 in 10.0 mi North 9.2 mph 24.2 mph N/A   Clear
10:53 AM 53.1 °F - 26.1 °F 35% 30.12 in 10.0 mi Calm Calm - N/A   Partly Cloudy
11:53 AM 55.0 °F - 25.0 °F 31% 30.10 in 10.0 mi Variable 3.5 mph - N/A   Clear
12:53 PM 55.9 °F - 24.1 °F 29% 30.08 in 10.0 mi North 11.5 mph 20.7 mph N/A   Clear
1:53 PM 55.9 °F - 23.0 °F 28% 30.06 in 10.0 mi NNW 9.2 mph 27.6 mph N/A   Clear
2:53 PM 55.9 °F - 21.0 °F 26% 30.06 in 10.0 mi NNW 15.0 mph 31.1 mph N/A   Clear
3:53 PM 55.9 °F - 21.0 °F 26% 30.08 in 10.0 mi NNW 16.1 mph 27.6 mph N/A   Clear
4:53 PM 54.0 °F - 17.1 °F 23% 30.09 in 10.0 mi NNW 5.8 mph - N/A   Clear
5:53 PM 52.0 °F - 14.0 °F 22% 30.09 in 10.0 mi North 8.1 mph - N/A   Clear
6:53 PM 52.0 °F - 12.0 °F 20% 30.09 in 10.0 mi North 18.4 mph 29.9 mph N/A   Clear
7:53 PM 50.0 °F - 12.0 °F 22% 30.12 in 10.0 mi North 17.3 mph 33.4 mph N/A   Clear
8:53 PM 48.9 °F - 10.9 °F 22% 30.13 in 10.0 mi North 15.0 mph 28.8 mph N/A   Clear
9:53 PM 48.9 °F - 10.9 °F 22% 30.14 in 10.0 mi North 8.1 mph 19.6 mph N/A   Clear
10:53 PM 48.9 °F - 10.0 °F 21% 30.15 in 10.0 mi North 12.7 mph 23.0 mph N/A   Clear
11:53 PM 46.9 °F - 10.9 °F 23% 30.16 in 10.0 mi North - - N/A   Clear